[[{"header":{"parameterUnit":"m.s-1","parameterCategory":1,"la1":30.2991,"la2":30.254,"lo1":-89.0895,"lo2":-89.0444,"dy":0.0017,"dx":0.0017,"nx":28,"ny":28,"refTime":"2024-07-24T03:00:00:Z","depth":0,"parameterNumber":2,"parameterNumberName":"U-component_of_WINDS"},"data":[0,0,0,0,0,0,0,0,0,0,0,0,0,0,0,0,0,0,0,0,0,0,0,0,0,0,0,0,0,0,0,0,0,0,0,0,0,0,0,0,0,0,0,0,0,0,0,0,0,0,0,0,0,0,0,0,0,0,-0.7945,-0.7945,0,-0.7919,-0.7918,-0.7918,-0.7901,-0.7901,-0.7901,-0.7901,-0.7873,-0.7873,-0.7872,0,0,0,0,0,0,0,0,0,0,0,0,0,-0.7979,-0.7979,-0.7945,-0.7945,-0.7944,-0.7919,-0.7918,-0.7918,-0.7901,-0.7901,-0.7901,-0.7901,-0.7874,-0.7873,-0.7872,0,0,0,0,0,0,0,0,0,0,0,0,0,-0.796,-0.7979,-0.7945,-0.7933,-0.7932,-0.7919,-0.7918,-0.7918,-0.7901,-0.7901,-0.7901,-0.7901,-0.7874,-0.7873,-0.7872,-0.7869,0,0,-0.7869,-0.7869,0,0,0,0,0,0,0,0,-0.7961,-0.7959,-0.7935,-0.7934,-0.7932,-0.7913,-0.792,-0.7902,-0.7902,-0.7913,-0.7901,-0.7901,-0.7887,-0.7885,-0.788,-0.7868,-0.7866,-0.7869,-0.7868,-0.7868,-0.7868,0,0,0,0,0,0,0,-0.7962,-0.796,-0.7935,-0.7935,-0.7933,-0.7928,-0.7925,-0.7917,-0.7901,-0.7912,-0.7911,-0.7908,-0.7886,-0.7881,-0.7879,-0.7866,-0.7869,-0.7868,-0.7868,-0.7867,-0.7848,-0.7848,0,0,0,0,0,0,-0.7966,-0.7961,-0.7935,-0.7934,-0.7947,-0.7928,-0.7925,-0.792,-0.7901,-0.7898,-0.7908,-0.7907,-0.7883,-0.788,-0.7878,-0.7873,-0.7868,-0.7867,-0.7866,-0.7848,-0.7848,-0.7848,0,0,0,0,0,0,-0.7967,-0.7964,-0.7937,-0.7947,-0.7943,-0.7927,-0.7922,-0.7919,-0.7914,-0.7898,-0.7895,-0.7906,-0.7883,-0.788,-0.7871,-0.7872,-0.7867,-0.7866,-0.7848,-0.7848,-0.7848,-0.7862,0,0,0,0,0,0,-0.7968,-0.7964,-0.7963,-0.7947,-0.7943,-0.7931,-0.7922,-0.7919,-0.7913,-0.7911,-0.7895,-0.7893,-0.7882,-0.7873,-0.787,-0.787,-0.7865,-0.7848,-0.7848,-0.7848,-0.7862,-0.7863,-0.7864,0,0,0,0,0,-0.7969,-0.7968,-0.7963,-0.796,-0.7941,-0.7931,-0.7928,-0.7916,-0.7913,-0.7911,-0.7901,-0.7893,-0.7872,-0.7872,-0.7869,-0.7869,-0.7848,-0.7848,-0.7848,-0.7861,-0.7863,-0.7864,0,0,0,0,0,0,-0.7985,-0.7966,-0.796,-0.7955,-0.7944,-0.7928,-0.7926,-0.7918,-0.7909,-0.7908,-0.7893,-0.789,-0.7883,-0.7875,-0.7875,-0.7864,-0.7859,-0.7858,-0.787,-0.7871,-0.7872,-0.7874,-0.7864,0,0,0,0,0,-0.7988,-0.7981,-0.7965,-0.7961,-0.7956,-0.7942,-0.7937,-0.7929,-0.7917,-0.7913,-0.7902,-0.7891,-0.7881,-0.7876,-0.7866,-0.786,-0.7856,-0.7858,-0.7859,-0.786,-0.786,-0.7855,-0.7856,-0.7849,-0.7849,-0.7849,0,0,-0.7994,-0.7983,-0.7979,-0.7964,-0.7955,-0.7948,-0.7939,-0.7931,-0.7926,-0.7912,-0.7903,-0.7894,-0.7881,-0.7873,-0.7869,-0.7866,-0.7861,-0.786,-0.7861,-0.7861,-0.7856,-0.7856,-0.7857,-0.7849,-0.7849,-0.7849,0,0,-0.8001,-0.7992,-0.7988,-0.7979,-0.7965,-0.7955,-0.7954,-0.7939,-0.7932,-0.7923,-0.7912,-0.7905,-0.7889,-0.788,-0.7873,-0.7875,-0.7867,-0.7872,-0.7878,-0.7873,-0.7874,-0.7874,-0.7874,-0.7875,-0.7872,-0.7872,-0.7872,0,-0.801,-0.7999,-0.7987,-0.798,-0.7973,-0.796,-0.7955,-0.7946,-0.7931,-0.7926,-0.7923,-0.7902,-0.7892,-0.7882,-0.7882,-0.7877,-0.7875,-0.7874,-0.7875,-0.7875,-0.7875,-0.7875,-0.7876,-0.7873,-0.7873,-0.7873,-0.7873,0,-0.8011,-0.8003,-0.8001,-0.7986,-0.7979,-0.7973,-0.7959,-0.7953,-0.7945,-0.7935,-0.7925,-0.7913,-0.79,-0.7897,-0.7889,-0.7885,-0.7883,-0.7878,-0.7872,-0.7877,-0.7877,-0.7877,-0.7874,-0.7874,-0.7873,-0.7873,0,0,-0.8029,-0.8005,-0.8005,-0.7997,-0.7981,-0.7974,-0.7967,-0.7955,-0.795,-0.7939,-0.7932,-0.7919,-0.7913,-0.7905,-0.7896,-0.7892,-0.7893,-0.7886,-0.7886,-0.7888,-0.7887,-0.7891,-0.7892,-0.7888,-0.7888,-0.7888,-0.7888,0,-0.8033,-0.8021,-0.8008,-0.8,-0.7992,-0.7978,-0.7972,-0.7961,-0.7951,-0.7942,-0.7931,-0.7922,-0.7915,-0.791,-0.7906,-0.7894,-0.7893,-0.7894,-0.7881,-0.788,-0.7885,-0.7891,-0.7896,-0.7897,-0.7888,-0.7888,-0.7888,0,-0.8037,-0.8027,-0.8017,-0.8,-0.7997,-0.7991,-0.7978,-0.797,-0.7957,-0.795,-0.794,-0.793,-0.7921,-0.7917,-0.7903,-0.7904,-0.7898,-0.7891,-0.7891,-0.7889,-0.7885,-0.789,-0.7898,-0.7898,-0.7887,-0.7887,-0.7887,0,-0.8051,-0.8034,-0.8026,-0.802,-0.8,-0.7996,-0.7988,-0.7974,-0.7967,-0.7955,-0.795,-0.7938,-0.7931,-0.7921,-0.7907,-0.7905,-0.7895,-0.7889,-0.7889,-0.7889,-0.7888,-0.7888,-0.7894,-0.7884,-0.7884,-0.7884,-0.7884,0,-0.8057,-0.8052,-0.8032,-0.8027,-0.802,-0.8005,-0.7999,-0.7989,-0.7976,-0.7969,-0.7956,-0.7949,-0.7931,-0.7922,-0.7911,-0.7901,-0.7898,-0.7892,-0.7889,-0.7893,-0.7894,-0.7889,-0.7889,-0.7884,-0.7884,-0.7884,-0.7884,0,-0.8072,-0.8058,-0.8048,-0.803,-0.8025,-0.8021,-0.8005,-0.7999,-0.7988,-0.7978,-0.7975,-0.7958,-0.7946,-0.7931,-0.7914,-0.7907,-0.7898,-0.7894,-0.7903,-0.7901,-0.7902,-0.7902,-0.7905,-0.7904,-0.7894,-0.7894,-0.7894,0,-0.8077,-0.8073,-0.8053,-0.8047,-0.8039,-0.803,-0.8022,-0.8007,-0.7999,-0.7983,-0.7979,-0.7966,-0.7955,-0.7936,-0.7922,-0.7908,-0.7904,-0.7906,-0.7902,-0.7905,-0.7903,-0.7904,-0.7903,-0.7907,-0.7907,-0.7907,-0.7907,0,-0.8088,-0.8081,-0.8071,-0.8058,-0.8049,-0.8038,-0.8027,-0.8022,-0.8004,-0.7996,-0.7984,-0.7975,-0.7958,-0.7945,-0.793,-0.792,-0.791,-0.7909,-0.7908,-0.7912,-0.7917,-0.7914,-0.7906,-0.7909,-0.7909,-0.7908,-0.7908,-0.7908,-0.8098,-0.8093,-0.8078,-0.8067,-0.8056,-0.8046,-0.8039,-0.8027,-0.8016,-0.8001,-0.7992,-0.798,-0.7965,-0.7943,-0.7934,-0.7923,-0.792,-0.7919,-0.7918,-0.7918,-0.7919,-0.7919,-0.792,-0.792,-0.792,-0.792,-0.792,0,-0.8108,-0.8097,-0.8087,-0.8071,-0.8062,-0.8053,-0.804,-0.8032,-0.8022,-0.8009,-0.7998,-0.7983,-0.7969,-0.7953,-0.7939,-0.7934,-0.7929,-0.793,-0.7931,-0.7928,-0.7923,-0.7926,-0.7934,-0.7934,-0.7934,-0.7934,-0.7934,-0.7934,-0.8112,-0.8103,-0.8094,-0.8079,-0.8068,-0.8056,-0.8049,-0.8038,-0.8027,-0.8011,-0.8,-0.799,-0.7975,-0.7959,-0.7947,-0.7942,-0.7937,-0.794,-0.7934,-0.793,-0.7929,-0.7928,-0.793,-0.7939,-0.7939,-0.794,-0.794,-0.794]},{"header":{"parameterUnit":"m.s-1","parameterCategory":1,"la1":30.2991,"la2":30.254,"lo1":-89.0895,"lo2":-89.0444,"dy":0.0017,"dx":0.0017,"nx":28,"ny":28,"refTime":"2024-07-24T03:00:00:Z","depth":0,"parameterNumber":3,"parameterNumberName":"V-component_of_WINDS"},"data":[0,0,0,0,0,0,0,0,0,0,0,0,0,0,0,0,0,0,0,0,0,0,0,0,0,0,0,0,0,0,0,0,0,0,0,0,0,0,0,0,0,0,0,0,0,0,0,0,0,0,0,0,0,0,0,0,0,0,0.307,0.307,0,0.3033,0.3032,0.3032,0.2976,0.2975,0.2974,0.2974,0.2936,0.2936,0.2936,0,0,0,0,0,0,0,0,0,0,0,0,0,0.3095,0.3095,0.307,0.307,0.3069,0.3033,0.3032,0.3032,0.2977,0.2975,0.2974,0.2973,0.2936,0.2936,0.2936,0,0,0,0,0,0,0,0,0,0,0,0,0,0.3073,0.3095,0.307,0.3037,0.3034,0.3033,0.3032,0.3031,0.2977,0.2975,0.2974,0.2973,0.2936,0.2936,0.2936,0.2964,0,0,0.2935,0.2935,0,0,0,0,0,0,0,0,0.3075,0.3073,0.3043,0.304,0.3036,0.3008,0.3027,0.3009,0.2977,0.2999,0.2974,0.2972,0.2961,0.2959,0.2955,0.2962,0.296,0.2935,0.2935,0.2935,0.2935,0,0,0,0,0,0,0,0.3076,0.3074,0.3055,0.3042,0.3038,0.3025,0.302,0.3023,0.2988,0.2997,0.2993,0.2989,0.2959,0.2955,0.2953,0.296,0.2935,0.2935,0.2935,0.2935,0.2987,0.2988,0,0,0,0,0,0,0.3083,0.3075,0.3057,0.3054,0.3052,0.3025,0.302,0.3018,0.2988,0.2982,0.299,0.2986,0.2956,0.2954,0.2952,0.2982,0.2935,0.2935,0.2935,0.2985,0.2987,0.2988,0,0,0,0,0,0,0.3083,0.3081,0.3058,0.3064,0.306,0.3026,0.3025,0.3018,0.3014,0.2983,0.2977,0.2993,0.2955,0.2952,0.2961,0.298,0.2935,0.2935,0.2983,0.2986,0.2988,0.3043,0,0,0,0,0,0,0.3084,0.3082,0.3092,0.3064,0.306,0.3068,0.3026,0.3019,0.3014,0.3009,0.2984,0.2978,0.2953,0.2961,0.2961,0.2979,0.2934,0.2982,0.2984,0.2987,0.3039,0.3047,0.3053,0,0,0,0,0,0.3085,0.311,0.3093,0.3091,0.3072,0.3069,0.3066,0.3037,0.3016,0.3026,0.3006,0.2979,0.2978,0.2963,0.2961,0.298,0.298,0.2984,0.2987,0.3036,0.3046,0.3053,0,0,0,0,0,0,0.3142,0.3106,0.3087,0.3103,0.3089,0.306,0.3072,0.3048,0.304,0.3036,0.3,0.2994,0.3007,0.2994,0.2978,0.3005,0.2975,0.2978,0.3013,0.3021,0.3028,0.3031,0.2934,0,0,0,0,0,0.3156,0.3156,0.3125,0.3142,0.3136,0.3105,0.3103,0.3081,0.3066,0.306,0.3041,0.3027,0.3023,0.3022,0.3017,0.3037,0.3031,0.3049,0.3056,0.3062,0.3065,0.3074,0.3082,0.2999,0.2999,0.2999,0,0,0.3185,0.3166,0.3169,0.3153,0.314,0.3141,0.3101,0.3104,0.3105,0.3061,0.3067,0.3053,0.3035,0.3049,0.3055,0.3039,0.3087,0.3066,0.3071,0.3071,0.3079,0.3087,0.3094,0.3002,0.3001,0.3001,0,0,0.324,0.3225,0.3238,0.3225,0.3206,0.3185,0.3188,0.3161,0.315,0.3156,0.3122,0.3123,0.3117,0.3106,0.3099,0.3148,0.3123,0.3147,0.3184,0.3193,0.32,0.3205,0.3222,0.3229,0.3151,0.3151,0.3151,0,0.3279,0.328,0.3247,0.3252,0.3246,0.3206,0.3218,0.3208,0.3188,0.3185,0.3167,0.3159,0.3144,0.3155,0.3167,0.3163,0.3165,0.315,0.3201,0.3207,0.3212,0.3227,0.3234,0.3154,0.3154,0.3153,0.3153,0,0.3329,0.333,0.3342,0.3323,0.3319,0.3327,0.3296,0.3295,0.3274,0.3255,0.3261,0.3242,0.3232,0.3233,0.3212,0.324,0.3231,0.3208,0.3177,0.3223,0.3237,0.3243,0.3158,0.3157,0.3156,0.3156,0,0,0.3418,0.3381,0.3386,0.3376,0.3352,0.3352,0.3358,0.3348,0.3348,0.3335,0.3339,0.3335,0.3314,0.3306,0.3284,0.3292,0.3331,0.3268,0.3267,0.328,0.336,0.3378,0.3385,0.3314,0.3315,0.3316,0.3362,0,0.3468,0.3477,0.3447,0.3464,0.3464,0.3425,0.3431,0.3416,0.3398,0.3395,0.3375,0.3373,0.3345,0.334,0.3346,0.3325,0.3347,0.3322,0.3318,0.3318,0.3324,0.3393,0.3411,0.3455,0.3367,0.3368,0.3369,0,0.3527,0.3517,0.3533,0.3506,0.3505,0.3511,0.3499,0.3497,0.3479,0.3465,0.3457,0.343,0.3434,0.3405,0.341,0.3393,0.339,0.3379,0.338,0.3379,0.3346,0.3393,0.3469,0.3475,0.3377,0.3377,0.3376,0,0.359,0.3581,0.3589,0.3582,0.3551,0.3556,0.3544,0.3524,0.352,0.3509,0.3505,0.3496,0.349,0.3483,0.3454,0.3436,0.3463,0.3431,0.3451,0.3452,0.3459,0.3459,0.3535,0.3457,0.3457,0.3457,0.3457,0,0.3648,0.366,0.3617,0.3622,0.3633,0.3599,0.3612,0.3595,0.3578,0.3579,0.3545,0.3547,0.3509,0.3507,0.3484,0.3491,0.3489,0.3478,0.3472,0.3481,0.3482,0.3478,0.3475,0.3458,0.3458,0.3458,0.3457,0,0.3721,0.3693,0.3699,0.3669,0.3662,0.3672,0.3646,0.3649,0.3629,0.363,0.3629,0.3597,0.3592,0.3562,0.3551,0.3536,0.3551,0.3539,0.3557,0.3553,0.3575,0.3573,0.3651,0.3659,0.3577,0.3577,0.3578,0,0.376,0.3768,0.3738,0.3736,0.3725,0.3723,0.3718,0.3684,0.368,0.366,0.3666,0.3658,0.365,0.3644,0.3619,0.361,0.3597,0.3625,0.3596,0.3604,0.3597,0.3597,0.3597,0.3632,0.3633,0.3634,0.3634,0,0.3832,0.3817,0.3811,0.38,0.3795,0.3785,0.3772,0.3773,0.3736,0.3733,0.3727,0.3721,0.3709,0.3701,0.3687,0.3674,0.3648,0.3644,0.3648,0.3657,0.3667,0.3661,0.3574,0.3642,0.3641,0.3641,0.364,0.364,0.3889,0.3893,0.3873,0.3868,0.3855,0.3844,0.3845,0.3824,0.3819,0.3806,0.3787,0.3784,0.3765,0.3743,0.3732,0.3729,0.3714,0.372,0.3722,0.3724,0.3728,0.3668,0.3726,0.3726,0.3726,0.3726,0.3725,0,0.3959,0.3943,0.3938,0.3922,0.3917,0.3893,0.3877,0.3875,0.3873,0.3857,0.385,0.3843,0.3835,0.381,0.3799,0.3801,0.3789,0.38,0.3799,0.3796,0.3742,0.374,0.381,0.381,0.381,0.381,0.381,0.381,0.3994,0.4001,0.3984,0.3984,0.3968,0.3965,0.3958,0.3948,0.3935,0.3929,0.3922,0.3905,0.3886,0.3873,0.3865,0.3857,0.3855,0.387,0.3858,0.3808,0.38,0.3793,0.379,0.3869,0.3869,0.3912,0.3913,0.3913]}]]